User: anonymous   Login
Location: *
(48.4333°N, 5.0333°W)
Time: 00:18:31
(UTC+00:00)
Language:

Nadezhda 3 Rocket - Orbit

View from above orbital plane
View from above orbital plane
View from above satellite
View from above satellite

Ground track
Ground track

The orbit data is extracted from the following two-line orbital elements,

1 21153U 91019B   20188.48275793 +.00000036 +00000-0 +22115-4 0  9990
2 21153 082.9259 092.8273 0027759 274.6916 258.5580 13.75941990471761
Epoch (UTC): 06 July 2020 11:35:10
Eccentricity: 0.0027759
inclination: 82.9259°
perigee height: 958 km
apogee height: 999 km
right ascension of ascending node: 92.8273°
argument of perigee: 274.6916°
revolutions per day: 13.75941990
mean anomaly at epoch: 258.5580°
orbit number at epoch: 47176

The dashed part of the orbit path shows where the satellite is in the earth's shadow,  

DLR